• In Deutschland
  • Länderverzeichnis
  • Für 7 Tage
  • Wassertemperatur
  • Satellitenkarten
  • Wetterkarte
  • Widgets
  • user-avatar
    Anmelden

    Stündliche Wetter Lezhe

    Heute, 21 Februar, Mittwoch

    Zeit Temperatur Niederschläge Wind Luftdruck Luftfeuchtigkeit
    00:00 +5°C° 0,3 mm 3 m/S 728 mmHg 86%
    01:00 +5°C° 0,3 mm 3 m/S 728 mmHg 86%
    02:00 +5°C° 0,3 mm 3 m/S 728 mmHg 86%
    03:00 +5°C° 0,3 mm 3 m/S 728 mmHg 86%
    04:00 +5°C° 0,3 mm 3 m/S 728 mmHg 86%
    05:00 +5°C° 0,2 mm 3 m/S 728 mmHg 86%
    06:00 +5°C° 0,2 mm 3 m/S 728 mmHg 86%
    07:00 +4°C° 0,2 mm 3 m/S 728 mmHg 85%
    08:00 +5°C° 0,3 mm 3 m/S 728 mmHg 85%
    09:00 +7°C° 0,3 mm 3 m/S 728 mmHg 85%
    10:00 +8°C° 0,3 mm 3 m/S 729 mmHg 85%
    11:00 +8°C° 0,5 mm 3 m/S 728 mmHg 84%
    12:00 +9°C° 0,5 mm 2 m/S 728 mmHg 83%
    13:00 +9°C° 0,5 mm 2 m/S 728 mmHg 82%
    14:00 +9°C° 0,5 mm 2 m/S 728 mmHg 83%
    15:00 +9°C° 0,5 mm 3 m/S 728 mmHg 83%
    16:00 +8°C° 0,5 mm 3 m/S 727 mmHg 84%
    17:00 +8°C° 0,5 mm 3 m/S 728 mmHg 84%
    18:00 +8°C° 0,5 mm 3 m/S 728 mmHg 84%
    19:00 +7°C° 0,5 mm 3 m/S 728 mmHg 85%
    20:00 +7°C° 0,6 mm 3 m/S 728 mmHg 85%
    21:00 +7°C° 0,6 mm 3 m/S 728 mmHg 86%
    22:00 +7°C° 0,6 mm 3 m/S 728 mmHg 86%
    23:00 +7°C° 0,3 mm 3 m/S 728 mmHg 86%

    Morgen, 22 Februar, Donnerstag

    Zeit Temperatur Niederschläge Wind Luftdruck Luftfeuchtigkeit
    00:00 +7°C° 0,3 mm 3 m/S 728 mmHg 86%
    01:00 +7°C° 0,3 mm 3 m/S 729 mmHg 85%
    02:00 +5°C° 0,7 mm 3 m/S 728 mmHg 87%
    03:00 +5°C° 0,7 mm 3 m/S 728 mmHg 88%
    04:00 +5°C° 0,7 mm 3 m/S 728 mmHg 89%
    05:00 +5°C° 0,3 mm 3 m/S 729 mmHg 89%
    06:00 +5°C° 0,3 mm 3 m/S 729 mmHg 88%
    07:00 +5°C° 0,3 mm 3 m/S 729 mmHg 87%
    08:00 +7°C° 0 mm 2 m/S 729 mmHg 85%
    09:00 +9°C° 0 mm 2 m/S 730 mmHg 82%
    10:00 +10°C° 0 mm 2 m/S 730 mmHg 79%
    11:00 +10°C° 0 mm 2 m/S 730 mmHg 76%
    12:00 +12°C° 0 mm 2 m/S 730 mmHg 73%
    13:00 +13°C° 0 mm 2 m/S 730 mmHg 71%
    14:00 +13°C° 0,2 mm 2 m/S 730 mmHg 72%
    15:00 +12°C° 0,2 mm 2 m/S 730 mmHg 73%
    16:00 +12°C° 0,2 mm 2 m/S 730 mmHg 75%
    17:00 +10°C° 0,3 mm 2 m/S 730 mmHg 78%
    18:00 +9°C° 0,3 mm 2 m/S 730 mmHg 81%
    19:00 +9°C° 0,3 mm 2 m/S 730 mmHg 84%
    20:00 +8°C° 0,2 mm 2 m/S 731 mmHg 84%
    21:00 +8°C° 0,2 mm 2 m/S 731 mmHg 84%
    22:00 +8°C° 0,2 mm 3 m/S 731 mmHg 83%
    23:00 +8°C° 0 mm 3 m/S 731 mmHg 83%

    übermorgen, 23 Februar, Freitag

    Zeit Temperatur Niederschläge Wind Luftdruck Luftfeuchtigkeit
    00:00 +7°C° 0 mm 3 m/S 731 mmHg 83%
    01:00 +7°C° 0 mm 3 m/S 731 mmHg 82%
    02:00 +7°C° 0,1 mm 3 m/S 731 mmHg 82%
    03:00 +7°C° 0,1 mm 3 m/S 731 mmHg 82%
    04:00 +7°C° 0,1 mm 3 m/S 731 mmHg 82%
    05:00 +7°C° 0,1 mm 3 m/S 731 mmHg 83%
    06:00 +7°C° 0,1 mm 3 m/S 731 mmHg 83%
    07:00 +8°C° 0,1 mm 3 m/S 731 mmHg 83%
    08:00 +9°C° 0 mm 3 m/S 731 mmHg 80%
    09:00 +10°C° 0 mm 2 m/S 731 mmHg 77%
    10:00 +12°C° 0 mm 2 m/S 732 mmHg 74%
    11:00 +13°C° 0 mm 2 m/S 731 mmHg 71%
    12:00 +14°C° 0 mm 2 m/S 731 mmHg 68%
    13:00 +14°C° 0 mm 2 m/S 731 mmHg 65%
    14:00 +13°C° 0 mm 3 m/S 731 mmHg 67%
    15:00 +13°C° 0 mm 3 m/S 731 mmHg 70%
    16:00 +12°C° 0 mm 3 m/S 731 mmHg 72%
    17:00 +11°C° 0 mm 3 m/S 731 mmHg 74%
    18:00 +10°C° 0 mm 4 m/S 731 mmHg 77%
    19:00 +8°C° 0 mm 4 m/S 731 mmHg 79%
    20:00 +8°C° 0 mm 4 m/S 731 mmHg 79%
    21:00 +7°C° 0 mm 5 m/S 731 mmHg 79%
    22:00 +7°C° 0 mm 5 m/S 731 mmHg 78%
    23:00 +7°C° 0 mm 5 m/S 731 mmHg 78%

    24 Februar, Samstag

    Zeit Temperatur Niederschläge Wind Luftdruck Luftfeuchtigkeit
    00:00 +7°C° 0 mm 5 m/S 731 mmHg 78%
    01:00 +7°C° 0 mm 5 m/S 731 mmHg 78%
    02:00 +7°C° 0,1 mm 4 m/S 731 mmHg 80%
    03:00 +7°C° 0,1 mm 4 m/S 731 mmHg 81%
    04:00 +8°C° 0,1 mm 3 m/S 731 mmHg 83%
    05:00 +8°C° 0,4 mm 3 m/S 731 mmHg 84%
    06:00 +8°C° 0,4 mm 3 m/S 731 mmHg 85%
    07:00 +8°C° 0,4 mm 2 m/S 732 mmHg 86%
    08:00 +8°C° 0,6 mm 2 m/S 732 mmHg 86%
    09:00 +8°C° 0,6 mm 2 m/S 732 mmHg 85%
    10:00 +10°C° 0,6 mm 1 m/S 732 mmHg 85%
    11:00 +8°C° 1,3 mm 2 m/S 732 mmHg 87%
    12:00 +8°C° 1,3 mm 2 m/S 732 mmHg 90%
    13:00 +8°C° 1,3 mm 2 m/S 732 mmHg 92%
    14:00 +8°C° 0,5 mm 2 m/S 732 mmHg 90%
    15:00 +8°C° 0,5 mm 2 m/S 732 mmHg 88%
    16:00 +9°C° 0,5 mm 2 m/S 731 mmHg 86%
    17:00 +8°C° 0,3 mm 2 m/S 732 mmHg 87%
    18:00 +8°C° 0,3 mm 2 m/S 732 mmHg 88%
    19:00 +7°C° 0,3 mm 2 m/S 732 mmHg 89%
    20:00 +7°C° 0,3 mm 2 m/S 732 mmHg 90%
    21:00 +7°C° 0,3 mm 2 m/S 732 mmHg 90%
    22:00 +7°C° 0,3 mm 2 m/S 732 mmHg 90%
    23:00 +7°C° 0,6 mm 2 m/S 732 mmHg 91%

    25 Februar, Sonntag

    Zeit Temperatur Niederschläge Wind Luftdruck Luftfeuchtigkeit
    00:00 +5°C° 0,6 mm 3 m/S 732 mmHg 91%
    01:00 +5°C° 0,6 mm 3 m/S 732 mmHg 91%
    02:00 +5°C° 0,8 mm 3 m/S 732 mmHg 91%
    03:00 +5°C° 0,8 mm 3 m/S 732 mmHg 91%
    04:00 +5°C° 0,8 mm 3 m/S 732 mmHg 91%
    05:00 +4°C° 0,6 mm 3 m/S 732 mmHg 91%
    06:00 +4°C° 0,6 mm 3 m/S 732 mmHg 90%
    07:00 +4°C° 0,6 mm 3 m/S 732 mmHg 89%
    08:00 +4°C° 0,5 mm 3 m/S 732 mmHg 87%
    09:00 +4°C° 0,5 mm 3 m/S 732 mmHg 85%
    10:00 +5°C° 0,5 mm 3 m/S 732 mmHg 83%
    11:00 +5°C° 0,6 mm 3 m/S 732 mmHg 83%
    12:00 +5°C° 0,6 mm 3 m/S 731 mmHg 82%
    13:00 +5°C° 0,6 mm 3 m/S 731 mmHg 81%
    14:00 +5°C° 0,4 mm 3 m/S 731 mmHg 81%
    15:00 +5°C° 0,4 mm 3 m/S 731 mmHg 80%
    16:00 +5°C° 0,4 mm 3 m/S 731 mmHg 80%
    17:00 +4°C° 0,1 mm 3 m/S 731 mmHg 81%
    18:00 +3°C° 0,1 mm 3 m/S 731 mmHg 82%
    19:00 +2°C° 0,1 mm 3 m/S 731 mmHg 82%
    20:00 0°C° 0 mm 4 m/S 731 mmHg 82%
    21:00 0°C° 0 mm 4 m/S 731 mmHg 81%
    22:00 0°C° 0 mm 4 m/S 731 mmHg 81%
    23:00 -1°C° 0,1 mm 4 m/S 730 mmHg 81%

    26 Februar, Montag

    Zeit Temperatur Niederschläge Wind Luftdruck Luftfeuchtigkeit
    00:00 -1°C° 0,1 mm 4 m/S 730 mmHg 80%
    01:00 -1°C° 0,1 mm 4 m/S 730 mmHg 80%
    02:00 -1°C° 0,2 mm 5 m/S 729 mmHg 80%
    03:00 -2°C° 0,2 mm 5 m/S 729 mmHg 81%
    04:00 -2°C° 0,2 mm 5 m/S 729 mmHg 81%
    05:00 -2°C° 0,4 mm 5 m/S 729 mmHg 82%
    06:00 -2°C° 0,4 mm 5 m/S 729 mmHg 82%
    07:00 -2°C° 0,4 mm 4 m/S 729 mmHg 83%
    08:00 -2°C° 0,4 mm 4 m/S 729 mmHg 83%
    09:00 -1°C° 0,4 mm 4 m/S 729 mmHg 83%
    10:00 -1°C° 0,4 mm 4 m/S 729 mmHg 83%
    11:00 -1°C° 0,3 mm 4 m/S 728 mmHg 83%
    12:00 +1°C° 0,3 mm 3 m/S 728 mmHg 83%
    13:00 +1°C° 0,3 mm 3 m/S 728 mmHg 82%
    14:00 +1°C° 0,4 mm 3 m/S 728 mmHg 83%
    15:00 0°C° 0,4 mm 3 m/S 728 mmHg 85%
    16:00 0°C° 0,4 mm 3 m/S 728 mmHg 86%
    17:00 0°C° 0,6 mm 3 m/S 728 mmHg 87%
    18:00 -1°C° 0,6 mm 3 m/S 728 mmHg 88%
    19:00 -2°C° 0,6 mm 3 m/S 728 mmHg 89%
    20:00 -2°C° 0,4 mm 3 m/S 728 mmHg 89%
    21:00 -2°C° 0,4 mm 3 m/S 728 mmHg 90%
    22:00 -4°C° 0,4 mm 3 m/S 728 mmHg 90%
    23:00 -4°C° 0,3 mm 3 m/S 729 mmHg 90%
    Mehr zeigen